Location: Quedlinburg
(51.7921°N, 11.1414°E)
Time: 13:36:17
(UTC+02:00)

RS-15 - Pass Details

Date: 16 March 2026
Orbit: 1893 x 2152 km, 64.8° (Epoch: 22 April)

Event Time Altitude Azimuth Distance (km) Brightness Sun altitude
Rises 05:34:23 0° 320° (NW) 5,402 10.0 -9.0°
Reaches altitude 10° 05:37:44 10° 316° (NW) 4,431 9.6 -8.5°
Maximum altitude 05:48:38 53° 244° (WSW) 2,430 8.2 -6.9°
Drops below altitude 10° 06:00:01 10° 173° (S) 4,606 10.0 -5.1°
Sets 06:03:35 0° 169° (SSE) 5,627 10.6 -4.5°
